Scappoose, OR

10:01 PM PST on November 23, 2017 (GMT -0800)
Scappoose Industrial

Weather History for KSPB - November, 2012

Change the Weather History Date:

Saturday, November 24, 2012

  Actual Average Record
Temperature  
Mean Temperature 42 °F -  
Max Temperature 52 °F - 57 °F (2002)
Min Temperature 34 °F - 14 °F (2010)
Degree Days  
Heating Degree Days 22    
Month to date heating degree days 427  
Since 1 July heating degree days 953  
Cooling Degree Days 0    
Month to date cooling degree days 0  
Year to date cooling degree days 245  
Moisture  
Dew Point 42 °F    
Average Humidity 86    
Maximum Humidity 100    
Minimum Humidity 71    
Precipitation  
Precipitation T in - 2.68 in (2016)
Month to date precipitation 7.54  
Year to date precipitation 44.50  
Sea Level Pressure  
Sea Level Pressure 30.22 in    
Wind  
Wind Speed 1 mph (NW)    
Max Wind Speed 6 mph    
Max Gust Speed 8 mph    
Visibility 9 miles    
Events Rain , Snow    
T = Trace of Precipitation, MM = Missing Value Source: NWS Daily Summary

Daily Weather History Graph

Daily Weather History Graph

Search for Another Location

Airport or City:

Trip Planner

Search our weather history database for the weather conditions in past years. The results will help you decide how hot, cold, wet, or windy it might be!

Date:

Astronomy

Nov. 24, 2012 Rise Set
Actual Time 7:24 AM PST 4:32 PM PST
Civil Twilight 6:51 AM PST 5:05 PM PST
Nautical Twilight 6:14 AM PST 5:42 PM PST
Astronomical Twilight 5:38 AM PST 6:17 PM PST
Moon 2:27 PM PST 3:37 AM PST
Length of Visible Light 10h 14m
Length of Day
9h 07m
Waxing Gibbous, 88% of the Moon is Illuminated
Nov 24
Waxing Gibbous
Nov 28
Full
Dec 6
Last Quarter
Dec 13
New
Dec 19
First Quarter

Hourly Weather History & Observations

Time (PST) Temp. Windchill Dew Point Humidity Pressure Visibility Wind Dir Wind Speed Gust Speed Precip Events Conditions
12:53 AM 48.0 °F - 46.9 °F 96% 30.16 in 10.0 mi Calm Calm - 0.00 in   Overcast
1:25 AM 48.2 °F - 46.4 °F 93% 30.17 in 10.0 mi Calm Calm - 0.00 in   Overcast
1:53 AM 48.0 °F - 46.9 °F 96% 30.18 in 10.0 mi Calm Calm - 0.00 in   Overcast
2:53 AM 46.9 °F - 46.0 °F 97% 30.19 in 10.0 mi Calm Calm - N/A   Overcast
3:25 AM 46.4 °F - 46.4 °F 100% 30.20 in 10.0 mi Calm Calm - N/A   Overcast
3:53 AM 48.0 °F - 46.0 °F 93% 30.20 in 10.0 mi Calm Calm - N/A   Overcast
4:38 AM 46.4 °F - 44.6 °F 93% 30.21 in 10.0 mi Calm Calm - N/A   Mostly Cloudy
4:53 AM 46.9 °F - 45.0 °F 93% 30.22 in 10.0 mi Calm Calm - N/A   Mostly Cloudy
5:53 AM 45.0 °F 42.6 °F 44.1 °F 97% 30.22 in 10.0 mi West 4.6 mph - N/A   Mostly Cloudy
6:53 AM 44.1 °F - 42.1 °F 93% 30.22 in 10.0 mi Calm Calm - N/A   Scattered Clouds
7:53 AM 45.0 °F - 43.0 °F 93% 30.23 in 10.0 mi Calm Calm - N/A   Partly Cloudy
8:53 AM 45.0 °F - 43.0 °F 93% 30.25 in 10.0 mi Calm Calm - N/A   Clear
9:53 AM 46.9 °F - 45.0 °F 93% 30.25 in 10.0 mi Calm Calm - N/A   Clear
10:15 AM 46.4 °F - 44.6 °F 93% 30.25 in 10.0 mi Calm Calm - N/A   Partly Cloudy
10:53 AM 48.0 °F - 46.0 °F 93% 30.25 in 10.0 mi Calm Calm - N/A   Scattered Clouds
11:53 AM 50.0 °F - 45.0 °F 83% 30.24 in 10.0 mi Calm Calm - N/A   Clear
12:53 PM 51.1 °F - 46.0 °F 83% 30.23 in 10.0 mi Calm Calm - N/A   Scattered Clouds
1:53 PM 52.0 °F - 43.0 °F 71% 30.23 in 10.0 mi North 5.8 mph - N/A   Overcast
2:53 PM 51.1 °F - 43.0 °F 74% 30.22 in 10.0 mi North 3.5 mph - N/A   Clear
3:53 PM 48.9 °F - 44.1 °F 83% 30.22 in 10.0 mi Calm Calm - 0.00 in Rain Light Rain
4:53 PM 46.9 °F - 45.0 °F 93% 30.22 in 10.0 mi Calm Calm - 0.00 in   Overcast
5:53 PM 46.0 °F - 44.1 °F 93% 30.22 in 10.0 mi Calm Calm - N/A   Overcast
6:53 PM 44.1 °F 41.5 °F 41.0 °F 89% 30.22 in 10.0 mi WNW 4.6 mph - N/A   Partly Cloudy
7:53 PM 43.0 °F 40.3 °F 39.0 °F 86% 30.22 in 10.0 mi North 4.6 mph - N/A   Clear
8:53 PM 39.0 °F 36.8 °F 37.0 °F 93% 30.23 in 10.0 mi WNW 3.5 mph - N/A   Clear
9:53 PM 37.0 °F - 35.1 °F 93% 30.24 in 5.0 mi Calm Calm - N/A   Clear
10:31 PM 35.6 °F - 35.6 °F 100% 30.24 in 1.8 mi Calm Calm - 0.00 in Snow Light Snow
10:45 PM 33.8 °F 30.8 °F 33.8 °F 100% 30.25 in 3.0 mi West 3.5 mph - 0.00 in   Clear
10:53 PM 34.0 °F 31.0 °F 34.0 °F 100% 30.25 in 3.0 mi West 3.5 mph - 0.00 in   Clear
11:17 PM 35.6 °F - 33.8 °F 93% 30.25 in 2.5 mi Calm Calm - N/A   Partly Cloudy
11:36 PM 35.6 °F - 33.8 °F 93% 30.25 in 4.0 mi Calm Calm - N/A   Partly Cloudy
11:53 PM 36.0 °F - 34.0 °F 93% 30.26 in 5.0 mi Calm Calm - N/A   Clear